Alabaster, AL

9:01 AM CDT on August 27, 2016 (GMT -0500)
Shelby County

Weather History for KEET - July, 2013

Change the Weather History Date:

Thursday, July 11, 2013

  Actual Average Record
Temperature  
Mean Temperature 77 °F 81 °F  
Max Temperature 83 °F 91 °F 101 °F (1980)
Min Temperature 71 °F 71 °F 51 °F (1963)
Cooling Degree Days 12 16  
Month to date cooling degree days 130 168  
Year to date cooling degree days 794 811  
Since 1 June cooling degree days 542 542  
Growing Degree Days 26 (Base 50)    
Moisture  
Dew Point 72 °F    
Average Humidity 85    
Maximum Humidity 100    
Minimum Humidity 69    
Precipitation  
Precipitation 1.18 in 0.16 in 1.85 in (1949)
Month to date precipitation 4.36 1.69  
Year to date precipitation 38.06 30.25  
Sea Level Pressure  
Sea Level Pressure 29.96 in    
Wind  
Wind Speed 3 mph (WSW)    
Max Wind Speed 9 mph    
Max Gust Speed 21 mph    
Visibility 8 miles    
Events Fog , Rain , Thunderstorm    
T = Trace of Precipitation, MM = Missing Value Source: NWS Daily Summary

Daily Weather History Graph

Daily Weather History Graph

Search for Another Location

Airport or City:

Trip Planner

Search our weather history database for the weather conditions in past years. The results will help you decide how hot, cold, wet, or windy it might be!

Date:

Astronomy

Jul. 11, 2013 Rise Set
Actual Time 5:46 AM CDT 7:58 PM CDT
Civil Twilight 5:18 AM CDT 8:26 PM CDT
Nautical Twilight 4:43 AM CDT 9:01 PM CDT
Astronomical Twilight 4:06 AM CDT 9:38 PM CDT
Moon 8:52 AM CDT (7/11) 9:52 PM CDT (7/11)
Length of Visible Light 15h 08m
Length of Day
14h 11m
Waxing Crescent, 11% of the Moon is Illuminated
Jul 11
Waxing Crescent
Jul 15
First Quarter
Jul 22
Full
Jul 29
Last Quarter
Aug 6
New

Hourly Weather History & Observations

Time (CDT) Temp. Heat Index Dew Point Humidity Pressure Visibility Wind Dir Wind Speed Gust Speed Precip Events Conditions
12:53 AM 72.0 °F - 71.1 °F 97% 29.98 in 9.0 mi Calm Calm - N/A   Clear
1:53 AM 72.0 °F - 70.0 °F 93% 29.99 in 9.0 mi Variable 3.5 mph - 0.01 in   Overcast
2:01 AM 71.6 °F - 69.8 °F 94% 30.01 in 9.0 mi Variable 4.6 mph - N/A   Overcast
2:08 AM 71.6 °F - 69.8 °F 94% 30.01 in 7.0 mi Variable 6.9 mph - N/A Thunderstorm Overcast
2:15 AM 71.6 °F - 69.8 °F 94% 30.01 in 6.0 mi Variable 4.6 mph - N/A Thunderstorm Overcast
2:20 AM 71.6 °F - 69.8 °F 94% 30.02 in 1.8 mi Variable 4.6 mph - 0.17 in Rain , Thunderstorm Heavy Thunderstorms and Rain
2:23 AM 71.6 °F - 69.8 °F 94% 30.01 in 0.8 mi NE 6.9 mph - 0.39 in Rain , Thunderstorm Heavy Thunderstorms and Rain
2:27 AM 71.6 °F - 69.8 °F 94% 30.01 in 0.5 mi ENE 9.2 mph - 0.64 in Fog , Rain , Thunderstorm Heavy Thunderstorms and Rain
2:36 AM 71.6 °F - 71.6 °F 100% 30.00 in 0.8 mi Variable 3.5 mph - 0.86 in Rain , Thunderstorm Heavy Thunderstorms and Rain
2:43 AM 71.6 °F - 71.6 °F 100% 30.00 in 2.0 mi Variable 3.5 mph - 0.88 in Rain , Thunderstorm Light Thunderstorms and Rain
2:47 AM 71.6 °F - 71.6 °F 100% 29.99 in 4.0 mi Calm Calm - 0.90 in Rain , Thunderstorm Light Thunderstorms and Rain
2:53 AM 71.1 °F - 70.0 °F 96% 29.99 in 1.5 mi Calm Calm - 1.01 in Rain , Thunderstorm Heavy Thunderstorms and Rain
3:01 AM 71.6 °F - 69.8 °F 94% 30.01 in 1.5 mi Calm Calm - 0.04 in Rain , Thunderstorm Heavy Rain
3:05 AM 71.6 °F - 71.6 °F 100% 30.01 in 3.0 mi Calm Calm - 0.04 in Rain , Thunderstorm Light Rain
3:13 AM 71.6 °F - 69.8 °F 94% 29.99 in 2.5 mi Calm Calm - 0.08 in Rain , Thunderstorm Heavy Rain
3:32 AM 71.6 °F - 69.8 °F 94% 30.00 in 6.0 mi Calm Calm - 0.12 in Rain , Thunderstorm Light Rain
3:53 AM 71.1 °F - 70.0 °F 96% 29.96 in 9.0 mi South 3.5 mph - 0.12 in   Mostly Cloudy
4:20 AM 71.6 °F - 69.8 °F 94% 29.97 in 10.0 mi South 3.5 mph - 0.01 in   Mostly Cloudy
4:53 AM 71.1 °F - 70.0 °F 96% 29.97 in 8.0 mi South 3.5 mph - 0.01 in   Mostly Cloudy
5:03 AM 71.6 °F - 69.8 °F 94% 29.99 in 9.0 mi South 4.6 mph - N/A   Scattered Clouds
5:53 AM 71.1 °F - 70.0 °F 96% 29.98 in 7.0 mi West 4.6 mph - N/A   Partly Cloudy
6:53 AM 72.0 °F - 70.0 °F 93% 29.98 in 8.0 mi SSE 4.6 mph - 0.01 in Rain Light Rain
7:08 AM 71.6 °F - 69.8 °F 94% 30.00 in 7.0 mi Variable 3.5 mph - 0.00 in Rain Light Rain
7:53 AM 72.0 °F - 71.1 °F 97% 29.98 in 4.0 mi SSE 5.8 mph - 0.02 in Rain Rain
8:17 AM 71.6 °F - 71.6 °F 100% 30.00 in 6.0 mi South 3.5 mph - 0.01 in Rain Light Rain
8:53 AM 72.0 °F - 71.1 °F 97% 29.98 in 10.0 mi SSW 4.6 mph - 0.01 in   Mostly Cloudy
9:00 AM 73.4 °F - 71.6 °F 94% 29.99 in 10.0 mi Variable 3.5 mph - N/A   Scattered Clouds
9:15 AM 73.4 °F - 71.6 °F 94% 29.99 in 10.0 mi WSW 3.5 mph - N/A   Mostly Cloudy
9:39 AM 75.2 °F - 71.6 °F 89% 29.99 in 10.0 mi Variable 3.5 mph - N/A   Mostly Cloudy
9:53 AM 75.0 °F - 72.0 °F 90% 29.97 in 10.0 mi WNW 5.8 mph - N/A   Mostly Cloudy
10:20 AM 77.0 °F - 71.6 °F 83% 29.99 in 10.0 mi WNW 4.6 mph - N/A   Scattered Clouds
10:46 AM 77.0 °F - 71.6 °F 83% 29.99 in 10.0 mi WNW 5.8 mph - N/A   Mostly Cloudy
10:53 AM 77.0 °F - 72.0 °F 84% 29.97 in 10.0 mi WNW 8.1 mph - N/A   Mostly Cloudy
11:11 AM 77.0 °F - 71.6 °F 83% 29.99 in 10.0 mi NW 6.9 mph - N/A   Mostly Cloudy
11:53 AM 78.1 °F - 71.1 °F 79% 29.96 in 10.0 mi WNW 4.6 mph - N/A   Clear
12:53 PM 81.0 °F 85.2 °F 72.0 °F 74% 29.96 in 10.0 mi Calm Calm - N/A   Clear
1:53 PM 82.0 °F 86.7 °F 72.0 °F 71% 29.95 in 10.0 mi WSW 3.5 mph - N/A   Partly Cloudy
2:53 PM 82.9 °F 87.5 °F 71.1 °F 67% 29.94 in 10.0 mi SW 3.5 mph - N/A   Overcast
3:53 PM 82.0 °F 87.4 °F 73.0 °F 74% 29.93 in 10.0 mi Calm Calm - N/A   Overcast
4:53 PM 81.0 °F 86.7 °F 75.0 °F 82% 29.91 in 10.0 mi Calm Calm - N/A   Mostly Cloudy
5:26 PM 82.4 °F 89.5 °F 75.2 °F 79% 29.92 in 10.0 mi SSW 5.8 mph - N/A   Mostly Cloudy
5:36 PM 82.4 °F 89.5 °F 75.2 °F 79% 29.92 in 10.0 mi Calm Calm - N/A   Mostly Cloudy
5:44 PM 82.4 °F 89.5 °F 75.2 °F 79% 29.92 in 10.0 mi SSW 5.8 mph - N/A   Mostly Cloudy
5:53 PM 82.0 °F 88.6 °F 75.0 °F 79% 29.90 in 10.0 mi SSW 3.5 mph - N/A   Scattered Clouds
6:06 PM 82.4 °F 89.5 °F 75.2 °F 79% 29.92 in 10.0 mi WSW 5.8 mph - N/A   Mostly Cloudy
6:16 PM 82.4 °F 88.2 °F 73.4 °F 74% 29.91 in 10.0 mi Calm Calm - N/A   Partly Cloudy
6:29 PM 82.4 °F 89.5 °F 75.2 °F 79% 29.91 in 10.0 mi West 3.5 mph - N/A   Mostly Cloudy
6:39 PM 82.4 °F 88.2 °F 73.4 °F 74% 29.91 in 10.0 mi WNW 3.5 mph - N/A   Scattered Clouds
6:53 PM 81.0 °F 86.7 °F 75.0 °F 82% 29.88 in 10.0 mi WSW 3.5 mph - N/A   Partly Cloudy
7:53 PM 80.1 °F 84.5 °F 73.9 °F 81% 29.89 in 10.0 mi Calm Calm - N/A   Clear
8:53 PM 78.1 °F - 73.9 °F 87% 29.89 in 10.0 mi Calm Calm - N/A   Clear
9:53 PM 75.9 °F - 73.0 °F 91% 29.90 in 10.0 mi WNW 3.5 mph - N/A   Clear
10:53 PM 75.0 °F - 73.0 °F 94% 29.91 in 9.0 mi Calm Calm - N/A   Clear
11:53 PM 73.9 °F - 72.0 °F 93% 29.92 in 8.0 mi Calm Calm - N/A   Clear